• în România
  • Lista ţărilor
  • Pe 7 zile
  • Temperatura apei
  • Hartă satelitară
  • Meteo pe hartă
  • Widget-uri
  • user-avatar
    Intrare

    Meteo pe oră la Bucureşti

    Astăzi, 25 Februarie, Sâmbătă

    Timp Temperatura Precipitaţii Vânt Presiune Umiditate
    00:00 +10°C° 0 mm 3 m/s 750 mmHg 78%
    01:00 +9°C° 0 mm 2 m/s 750 mmHg 80%
    02:00 +9°C° 0 mm 3 m/s 749 mmHg 82%
    03:00 +9°C° 0,2 mm 3 m/s 749 mmHg 84%
    04:00 +9°C° 0,2 mm 3 m/s 750 mmHg 86%
    05:00 +9°C° 0,2 mm 3 m/s 750 mmHg 88%
    06:00 +9°C° 0,5 mm 3 m/s 751 mmHg 90%
    07:00 +8°C° 0,5 mm 3 m/s 752 mmHg 91%
    08:00 +8°C° 0 mm 3 m/s 752 mmHg 90%
    09:00 +7°C° 0,7 mm 4 m/s 753 mmHg 89%
    10:00 +7°C° 0,7 mm 4 m/s 754 mmHg 87%
    11:00 +6°C° 0,7 mm 5 m/s 755 mmHg 86%
    12:00 +6°C° 0,2 mm 4 m/s 756 mmHg 85%
    13:00 +5°C° 0,2 mm 4 m/s 756 mmHg 83%
    14:00 +3°C° 0 mm 3 m/s 757 mmHg 79%
    15:00 +3°C° 0 mm 3 m/s 758 mmHg 79%
    16:00 +3°C° 0 mm 3 m/s 758 mmHg 79%
    17:00 +4°C° 0 mm 2 m/s 759 mmHg 78%
    18:00 +4°C° 0 mm 2 m/s 759 mmHg 81%
    19:00 +3°C° 0 mm 2 m/s 760 mmHg 83%
    20:00 +3°C° 0 mm 2 m/s 760 mmHg 86%
    21:00 +3°C° 0 mm 2 m/s 761 mmHg 86%
    22:00 +3°C° 0 mm 2 m/s 762 mmHg 86%
    23:00 +2°C° 0 mm 2 m/s 762 mmHg 86%

    Mâine, 26 Februarie, Duminică

    Timp Temperatura Precipitaţii Vânt Presiune Umiditate
    00:00 +2°C° 0 mm 2 m/s 762 mmHg 86%
    01:00 +2°C° 0 mm 2 m/s 763 mmHg 86%
    02:00 +2°C° 0 mm 2 m/s 763 mmHg 85%
    03:00 +2°C° 0 mm 2 m/s 763 mmHg 85%
    04:00 +2°C° 0 mm 2 m/s 763 mmHg 84%
    05:00 +2°C° 0 mm 2 m/s 763 mmHg 83%
    06:00 +2°C° 0 mm 2 m/s 763 mmHg 83%
    07:00 +2°C° 0 mm 2 m/s 763 mmHg 82%
    08:00 +2°C° 0 mm 2 m/s 763 mmHg 82%
    09:00 +4°C° 0 mm 2 m/s 763 mmHg 76%
    10:00 +5°C° 0 mm 2 m/s 762 mmHg 70%
    11:00 +7°C° 0 mm 3 m/s 762 mmHg 64%
    12:00 +8°C° 0 mm 2 m/s 761 mmHg 61%
    13:00 +9°C° 0 mm 2 m/s 761 mmHg 57%
    14:00 +10°C° 0 mm 2 m/s 760 mmHg 54%
    15:00 +10°C° 0 mm 2 m/s 759 mmHg 57%
    16:00 +11°C° 0 mm 1 m/s 759 mmHg 61%
    17:00 +10°C° 0 mm 1 m/s 759 mmHg 64%
    18:00 +9°C° 0 mm 1 m/s 759 mmHg 67%
    19:00 +8°C° 0 mm 1 m/s 759 mmHg 71%
    20:00 +6°C° 0 mm 1 m/s 758 mmHg 75%
    21:00 +6°C° 0 mm 1 m/s 758 mmHg 76%
    22:00 +6°C° 0 mm 1 m/s 758 mmHg 76%
    23:00 +6°C° 0 mm 1 m/s 758 mmHg 77%

    Poimâine, 27 Februarie, Luni

    Timp Temperatura Precipitaţii Vânt Presiune Umiditate
    00:00 +4°C° 0 mm 2 m/s 757 mmHg 77%
    01:00 +4°C° 0 mm 2 m/s 757 mmHg 77%
    02:00 +4°C° 0 mm 2 m/s 757 mmHg 77%
    03:00 +4°C° 0 mm 2 m/s 757 mmHg 77%
    04:00 +4°C° 0 mm 2 m/s 757 mmHg 77%
    05:00 +3°C° 0 mm 2 m/s 756 mmHg 78%
    06:00 +4°C° 0 mm 2 m/s 757 mmHg 77%
    07:00 +4°C° 0 mm 2 m/s 757 mmHg 77%
    08:00 +4°C° 0 mm 2 m/s 757 mmHg 76%
    09:00 +6°C° 0 mm 2 m/s 757 mmHg 70%
    10:00 +8°C° 0 mm 2 m/s 757 mmHg 64%
    11:00 +10°C° 0 mm 2 m/s 757 mmHg 57%
    12:00 +12°C° 0 mm 1 m/s 756 mmHg 55%
    13:00 +13°C° 0 mm 1 m/s 756 mmHg 53%
    14:00 +14°C° 0 mm 1 m/s 756 mmHg 51%
    15:00 +14°C° 0 mm 1 m/s 756 mmHg 55%
    16:00 +13°C° 0 mm 1 m/s 755 mmHg 59%
    17:00 +12°C° 0 mm 0 m/s 755 mmHg 64%
    18:00 +12°C° 0 mm 1 m/s 755 mmHg 67%
    19:00 +10°C° 0 mm 1 m/s 755 mmHg 71%
    20:00 +9°C° 0 mm 1 m/s 756 mmHg 75%
    21:00 +9°C° 0 mm 1 m/s 756 mmHg 77%
    22:00 +8°C° 0 mm 1 m/s 756 mmHg 80%
    23:00 +8°C° 0 mm 1 m/s 756 mmHg 82%

    28 Februarie, Marţi

    Timp Temperatura Precipitaţii Vânt Presiune Umiditate
    00:00 +8°C° 0 mm 1 m/s 755 mmHg 84%
    01:00 +7°C° 0 mm 1 m/s 755 mmHg 85%
    02:00 +7°C° 0 mm 1 m/s 755 mmHg 87%
    03:00 +7°C° 0 mm 1 m/s 755 mmHg 87%
    04:00 +7°C° 0 mm 1 m/s 754 mmHg 88%
    05:00 +6°C° 0 mm 1 m/s 754 mmHg 89%
    06:00 +7°C° 0 mm 1 m/s 754 mmHg 89%
    07:00 +7°C° 0 mm 1 m/s 754 mmHg 88%
    08:00 +7°C° 0 mm 1 m/s 754 mmHg 88%
    09:00 +9°C° 0 mm 1 m/s 754 mmHg 81%
    10:00 +12°C° 0 mm 1 m/s 754 mmHg 73%
    11:00 +14°C° 0 mm 1 m/s 754 mmHg 65%
    12:00 +15°C° 0 mm 1 m/s 754 mmHg 62%
    13:00 +16°C° 0 mm 1 m/s 753 mmHg 59%
    14:00 +18°C° 0 mm 1 m/s 753 mmHg 57%
    15:00 +16°C° 0 mm 1 m/s 753 mmHg 60%
    16:00 +16°C° 0 mm 1 m/s 752 mmHg 63%
    17:00 +16°C° 0 mm 1 m/s 752 mmHg 67%
    18:00 +14°C° 0 mm 1 m/s 752 mmHg 72%
    19:00 +13°C° 0 mm 1 m/s 752 mmHg 77%
    20:00 +12°C° 0 mm 1 m/s 752 mmHg 82%
    21:00 +10°C° 0 mm 2 m/s 752 mmHg 84%
    22:00 +10°C° 0 mm 2 m/s 752 mmHg 85%
    23:00 +9°C° 0 mm 2 m/s 752 mmHg 87%

    1 Martie, Miercuri

    Timp Temperatura Precipitaţii Vânt Presiune Umiditate
    00:00 +9°C° 0 mm 2 m/s 751 mmHg 88%
    01:00 +9°C° 0 mm 2 m/s 751 mmHg 89%
    02:00 +9°C° 0 mm 1 m/s 751 mmHg 89%
    03:00 +9°C° 0 mm 1 m/s 750 mmHg 89%
    04:00 +9°C° 0 mm 1 m/s 750 mmHg 90%
    05:00 +8°C° 0 mm 1 m/s 750 mmHg 90%
    06:00 +9°C° 0 mm 1 m/s 750 mmHg 89%
    07:00 +9°C° 0 mm 1 m/s 750 mmHg 88%
    08:00 +9°C° 0 mm 1 m/s 750 mmHg 87%
    09:00 +10°C° 0 mm 2 m/s 749 mmHg 80%
    10:00 +13°C° 0 mm 2 m/s 749 mmHg 72%
    11:00 +15°C° 0 mm 2 m/s 749 mmHg 64%
    12:00 +16°C° 0 mm 2 m/s 748 mmHg 60%
    13:00 +17°C° 0 mm 2 m/s 747 mmHg 56%
    14:00 +18°C° 0 mm 2 m/s 746 mmHg 51%
    15:00 +18°C° 0,1 mm 2 m/s 746 mmHg 55%
    16:00 +17°C° 0,1 mm 2 m/s 746 mmHg 58%
    17:00 +17°C° 0,1 mm 2 m/s 745 mmHg 61%
    18:00 +14°C° 0,7 mm 4 m/s 746 mmHg 67%
    19:00 +12°C° 0,7 mm 5 m/s 747 mmHg 74%
    20:00 +10°C° 0,7 mm 7 m/s 748 mmHg 80%
    21:00 +9°C° 0,7 mm 6 m/s 748 mmHg 79%
    22:00 +8°C° 0,7 mm 5 m/s 749 mmHg 78%
    23:00 +8°C° 0,7 mm 4 m/s 750 mmHg 77%

    2 Martie, Joi

    Timp Temperatura Precipitaţii Vânt Presiune Umiditate
    00:00 +7°C° 0,1 mm 4 m/s 750 mmHg 76%
    01:00 +7°C° 0,1 mm 4 m/s 750 mmHg 75%
    02:00 +7°C° 0,1 mm 4 m/s 751 mmHg 74%
    03:00 +6°C° 0,1 mm 4 m/s 751 mmHg 74%
    04:00 +6°C° 0,1 mm 4 m/s 752 mmHg 75%
    05:00 +5°C° 0,1 mm 3 m/s 752 mmHg 75%
    06:00 +5°C° 0 mm 3 m/s 753 mmHg 75%
    07:00 +5°C° 0 mm 3 m/s 753 mmHg 74%
    08:00 +5°C° 0 mm 3 m/s 754 mmHg 74%
    09:00 +7°C° 0 mm 3 m/s 754 mmHg 66%
    10:00 +9°C° 0 mm 3 m/s 754 mmHg 58%
    11:00 +10°C° 0 mm 3 m/s 755 mmHg 51%
    12:00 +11°C° 0 mm 3 m/s 754 mmHg 47%
    13:00 +12°C° 0 mm 4 m/s 754 mmHg 44%
    14:00 +13°C° 0 mm 4 m/s 754 mmHg 40%
    15:00 +13°C° 0 mm 4 m/s 754 mmHg 43%
    16:00 +13°C° 0 mm 3 m/s 754 mmHg 46%
    17:00 +12°C° 0 mm 3 m/s 754 mmHg 48%
    18:00 +11°C° 0 mm 3 m/s 755 mmHg 53%
    19:00 +10°C° 0 mm 4 m/s 755 mmHg 58%
    20:00 +8°C° 0 mm 4 m/s 756 mmHg 63%
    21:00 +7°C° 0 mm 4 m/s 756 mmHg 64%
    22:00 +7°C° 0 mm 4 m/s 757 mmHg 65%
    23:00 +6°C° 0 mm 4 m/s 757 mmHg 67%
    Arată mai mult